This is the latest recevied weather packets stored in our database for station/object KN6CRX. If no packets are shown the sender has not sent any weather packets the latest 10 day(s).
| Time | Temp. | Humidity | Pressure | Rain* | Wind** | Luminosity | Snow |
|---|---|---|---|---|---|---|---|
| 1787596699 | 30° C | 33% | 1023.6 hPa | 0 mm | - | 834 W/m² | - |
| 1787596394 | 28.89° C | 33% | 1023.2 hPa | 0 mm | - | 744 W/m² | - |
| 1787596089 | 29.44° C | 35% | 1023.2 hPa | 0 mm | - | 820 W/m² | - |
| 1787595785 | 28.89° C | 37% | 1023.3 hPa | 0 mm | - | 815 W/m² | - |
| 1787595481 | 29.44° C | 35% | 1023.7 hPa | 0 mm | - | 809 W/m² | - |
| 1787595176 | 28.89° C | 36% | 1023.7 hPa | 0 mm | - | 801 W/m² | - |
| 1787594876 | 28.33° C | 34% | 1023.7 hPa | 0 mm | - | 790 W/m² | - |
| 1787594576 | 28.33° C | 34% | 1023.6 hPa | 0 mm | - | 782 W/m² | - |
| 1787594274 | 28.33° C | 36% | 1023.6 hPa | 0 mm | - | 772 W/m² | - |
| 1787593969 | 28.33° C | 36% | 1023.9 hPa | 0 mm | - | 761 W/m² | - |
| 1787593664 | 28.33° C | 36% | 1023.6 hPa | 0 mm | - | 755 W/m² | - |
| 1787593359 | 28.89° C | 34% | 1023.9 hPa | 0 mm | - | 746 W/m² | - |
| 1787593055 | 28.89° C | 35% | 1023.8 hPa | 0 mm | - | 734 W/m² | - |
| 1787592754 | 28.33° C | 36% | 1023.7 hPa | 0 mm | - | 722 W/m² | - |
| 1787592455 | 27.78° C | 37% | 1023.7 hPa | 0 mm | - | 711 W/m² | - |
| 1787592149 | 27.78° C | 38% | 1023.7 hPa | 0 mm | - | 710 W/m² | - |
| 1787591845 | 27.78° C | 38% | 1023.8 hPa | 0 mm | - | 696 W/m² | - |
| 1787591545 | 26.67° C | 38% | 1024 hPa | 0 mm | - | 681 W/m² | - |
| 1787591241 | 26.11° C | 42% | 1023.9 hPa | 0 mm | - | 662 W/m² | - |
| 1787590937 | 25° C | 42% | 1024.1 hPa | 0 mm | - | 642 W/m² | - |
| 1787590632 | 24.44° C | 45% | 1023.9 hPa | 0 mm | - | 645 W/m² | - |
| 1787590327 | 24.44° C | 44% | 1024.1 hPa | 0 mm | - | 303 W/m² | - |
| 1787590022 | 25° C | 42% | 1023.7 hPa | 0 mm | - | 175 W/m² | - |
| 1787589719 | 25° C | 43% | 1024.1 hPa | 0 mm | - | 209 W/m² | - |
| 1787589419 | 25° C | 42% | 1024 hPa | 0 mm | - | 272 W/m² | - |
* Rain latest hour (hover to see other rain measurements)
** Current wind speed in m/s (hover to see current wind gust speed)